Weather History for KBOW - August, 2014

Change the Weather History Date:

Saturday, August 30, 2014

  Actual Average Record
Temperature  
Mean Temperature 81 °F -  
Max Temperature 91 °F - - ()
Min Temperature 71 °F - - ()
Cooling Degree Days 16    
Growing Degree Days 31 (Base 50)    
Moisture  
Dew Point 71 °F    
Average Humidity 73    
Maximum Humidity 100    
Minimum Humidity 46    
Precipitation  
Precipitation 0.01 in - - ()
Sea Level Pressure  
Sea Level Pressure 30.11 in    
Wind  
Wind Speed 4 mph (ESE)    
Max Wind Speed 20 mph    
Max Gust Speed 34 mph    
Visibility 10 miles    
Events Rain , Thunderstorm    
T = Trace of Precipitation, MM = Missing Value Source: NWS Daily Summary

Daily Weather History Graph

Daily Weather History Graph

Search for Another Location

Airport or City:

Trip Planner

Search our weather history database for the weather conditions in past years. The results will help you decide how hot, cold, wet, or windy it might be!

Date:

Astronomy

Aug. 30, 2014 Rise Set
Actual Time 7:04 AM EDT 7:50 PM EDT
Civil Twilight 6:40 AM EDT 8:14 PM EDT
Nautical Twilight 6:12 AM EDT 8:42 PM EDT
Astronomical Twilight 5:43 AM EDT 9:10 PM EDT
Moon 11:23 AM EDT (8/30) 10:52 PM EDT (8/30)
Length of Visible Light 13h 33m
Length of Day
12h 45m
Waxing Crescent, 23% of the Moon is Illuminated
Aug 30
Waxing Crescent
Sep 2
First Quarter
Sep 8
Full
Sep 15
Last Quarter
Sep 24
New

Hourly Weather History & Observations

Time (EDT) Temp. Heat Index Dew Point Humidity Pressure Visibility Wind Dir Wind Speed Gust Speed Precip Events Conditions
12:15 AM 71.6 °F - - N/A% 30.09 in 10.0 mi ESE 6.9 mph - N/A   Clear
12:35 AM 71.6 °F - - N/A% 30.10 in 10.0 mi ESE 6.9 mph - N/A   Clear
12:55 AM 71.6 °F - - N/A% 30.11 in 10.0 mi SE 3.5 mph - N/A   Clear
1:15 AM 71.6 °F - - N/A% 30.11 in 10.0 mi SE 4.6 mph - N/A   Clear
1:35 AM 71.6 °F - - N/A% 30.12 in 10.0 mi Calm Calm - N/A   Clear
1:55 AM 71.6 °F - - N/A% 30.12 in 10.0 mi NNW 3.5 mph - N/A   Clear
2:15 AM 71.6 °F - - N/A% 30.11 in 10.0 mi NNW 3.5 mph - N/A   Clear
2:35 AM 71.6 °F - - N/A% 30.11 in 10.0 mi Calm Calm - N/A   Clear
2:55 AM 71.6 °F - - N/A% 30.11 in 10.0 mi Calm Calm - N/A   Clear
3:15 AM 71.6 °F - - N/A% 30.11 in 10.0 mi Calm Calm - N/A   Clear
3:35 AM 71.6 °F - - N/A% 30.11 in 10.0 mi Calm Calm - N/A   Clear
3:55 AM 71.6 °F - - N/A% 30.11 in 10.0 mi Calm Calm - N/A   Clear
4:15 AM 71.6 °F - - N/A% 30.11 in 10.0 mi Calm Calm - N/A   Clear
4:35 AM 71.6 °F - - N/A% 30.11 in 10.0 mi Calm Calm - N/A   Clear
4:55 AM 71.6 °F - - N/A% 30.11 in 10.0 mi Calm Calm - N/A   Clear
5:15 AM 71.6 °F - - N/A% 30.11 in 10.0 mi Calm Calm - N/A   Clear
5:35 AM 71.6 °F - - N/A% 30.12 in 10.0 mi Calm Calm - N/A   Clear
5:55 AM 71.6 °F - - N/A% 30.12 in 10.0 mi Calm Calm - N/A   Clear
6:15 AM 71.6 °F - - N/A% 30.13 in 10.0 mi Calm Calm - N/A   Clear
6:35 AM 71.6 °F - - N/A% 30.13 in 10.0 mi Calm Calm - N/A   Clear
6:55 AM 71.6 °F - - N/A% 30.13 in 10.0 mi Calm Calm - N/A   Clear
7:15 AM 71.6 °F - - N/A% 30.14 in 10.0 mi Calm Calm - N/A   Clear
7:47 AM 71.6 °F - - N/A% 30.15 in 10.0 mi Calm Calm - N/A   Partly Cloudy
8:55 AM 77.0 °F - 77.0 °F 100% 30.15 in 10.0 mi East 5.8 mph - N/A   Partly Cloudy
9:47 AM 80.6 °F 86.2 °F 75.2 °F 84% 30.16 in 10.0 mi East 6.9 mph - N/A   Scattered Clouds
10:50 AM 84.2 °F 92.3 °F 75.2 °F 74% 30.16 in 10.0 mi ESE 11.5 mph - N/A   Scattered Clouds
11:47 AM 87.8 °F 97.6 °F 75.2 °F 66% 30.15 in 10.0 mi East 6.9 mph - N/A   Mostly Cloudy
12:50 PM 89.6 °F 98.2 °F 73.4 °F 59% 30.13 in 10.0 mi SE 4.6 mph - N/A   Mostly Cloudy
1:50 PM 89.6 °F 96.2 °F 71.6 °F 55% 30.11 in 10.0 mi SE 5.8 mph - N/A   Mostly Cloudy
2:55 PM 89.6 °F 98.2 °F 73.4 °F 59% 30.08 in 10.0 mi Calm Calm - N/A   Mostly Cloudy
3:55 PM 89.6 °F 96.2 °F 71.6 °F 55% 30.06 in 10.0 mi East 8.1 mph - N/A   Mostly Cloudy
4:50 PM 91.4 °F 95.4 °F 68.0 °F 46% 30.05 in 10.0 mi ENE 5.8 mph - N/A   Scattered Clouds
5:35 PM 82.4 °F 86.3 °F 69.8 °F 66% 30.08 in 10.0 mi ESE 19.6 mph 34.5 mph N/A Thunderstorm Scattered Clouds
5:55 PM 82.4 °F 84.6 °F 66.2 °F 58% 30.09 in 10.0 mi SE 15.0 mph 28.8 mph N/A Thunderstorm Scattered Clouds
6:15 PM 82.4 °F 84.6 °F 66.2 °F 58% 30.09 in 10.0 mi SSE 11.5 mph - N/A Thunderstorm Clear
6:35 PM 82.4 °F 84.6 °F 66.2 °F 58% 30.08 in 10.0 mi ESE 10.4 mph - N/A   Clear
6:55 PM 80.6 °F 83.2 °F 68.0 °F 65% 30.08 in 10.0 mi ESE 6.9 mph - N/A   Clear
7:15 PM 78.8 °F - 69.8 °F 74% 30.08 in 10.0 mi ESE 3.5 mph - N/A   Clear
7:35 PM 78.8 °F - 69.8 °F 74% 30.08 in 10.0 mi Calm Calm - N/A   Clear
7:55 PM 78.8 °F - 69.8 °F 74% 30.09 in 10.0 mi Calm Calm - N/A Rain Light Rain
8:15 PM 77.0 °F - 71.6 °F 83% 30.09 in 10.0 mi Calm Calm - 0.01 in Rain Light Rain
8:35 PM 78.8 °F - 69.8 °F 74% 30.10 in 10.0 mi Calm Calm - 0.01 in   Clear
8:55 PM 77.0 °F - 71.6 °F 83% 30.11 in 10.0 mi Calm Calm - 0.01 in   Clear
9:35 PM 75.2 °F - 73.4 °F 94% 30.12 in 10.0 mi East 3.5 mph - N/A   Clear
9:55 PM 75.2 °F - 71.6 °F 89% 30.13 in 10.0 mi Calm Calm - N/A   Clear
10:15 PM 78.8 °F - 69.8 °F 74% 30.13 in 10.0 mi Calm Calm - N/A   Clear
10:35 PM 77.0 °F - 73.4 °F 89% 30.13 in 10.0 mi Calm Calm - N/A   Clear
10:55 PM 78.8 °F - 71.6 °F 78% 30.14 in 10.0 mi NW 3.5 mph - N/A   Clear
11:15 PM 77.0 °F - 73.4 °F 89% 30.15 in 10.0 mi Calm Calm - N/A   Clear
11:35 PM 75.2 °F - 73.4 °F 94% 30.16 in 10.0 mi Calm Calm - N/A   Clear
11:55 PM 77.0 °F - 71.6 °F 83% 30.16 in 10.0 mi NNW 3.5 mph - N/A   Clear